Location: ????????
(55.6189°N, 38.3031°E)
Time: 14:53:18
(UTC+00:00)

SL-16 R/B - Pass Details

Date: 25 February 2020
Orbit: 843 x 847 km, 71.0° (Epoch: 08 April)

Event Time Altitude Azimuth Distance (km) Brightness Sun altitude
Exits shadow 23:16:38 19° 69° (ENE) 1,899 4.4 -39.6°
Drops below altitude 10° 23:18:49 10° 51° (NE) 2,476 5.3 -39.5°
Sets 23:21:38 0° 39° (NE) 3,415 6.3 -39.3°
